Location: Abundant Grace Fellowship
(35.0349°N, 90.0924°W)
Time: 21:32:28
(UTC+00:00)

Helios 1A Rocket - Pass Details

Date: 18 January 2026
Orbit: 426 x 436 km, 98.3° (Epoch: 11 February)

Event Time Altitude Azimuth Distance (km) Brightness Sun altitude
Rises 11:35:56 0° 148° (SSE) 2,434 6.8 -18.5°
Reaches altitude 10° 11:38:04 10° 139° (SE) 1,568 5.9 -18.1°
Maximum altitude 11:41:07 33° 73° (ENE) 770 4.1 -17.5°
Drops below altitude 10° 11:44:12 10° 7° (N) 1,577 5.1 -16.8°
Enters shadow 11:46:13 - 358° (N) 2,403 5.9 -16.4°
